Wind_Speed
38 36 35 33 31 31 29 28 29 29 34 39 33 30 30 31 30 30 32 32 34 35 36 36 37 38 39 40 41 44 46 47 48 49 48 49 51 53 55 56 56 58 59
39 38 37 36 34 31 30 31 34 33 34 33 32 31 30 31 30 30 30 31 32 33 32 33 34 36 38 40 41 42 45 47 47 48 50 48 48 50 54 56 58 60 61
37 39 38 37 37 35 34 34 32 33 33 33 32 30 30 30 32 31 31 31 32 33 34 36 37 37 37 38 38 40 41 44 48 50 52 55 55 51 48 51 54 56 57
37 38 40 40 38 37 36 35 32 31 33 31 31 30 31 31 31 31 31 31 32 34 34 33 33 35 35 36 38 40 42 44 46 48 50 52 53 52 49 46 46 50 52
40 42 43 42 42 39 38 32 31 32 31 30 30 30 30 29 30 30 31 32 30 28 29 30 32 33 35 37 39 42 44 46 47 49 50 50 52 53 54 51 47 47 48
44 47 46 44 41 38 34 32 30 30 29 29 30 30 29 30 31 31 30 28 26 27 29 30 31 32 34 36 39 41 43 45 46 47 48 50 52 53 54 54 54 52 47
45 46 39 35 30 31 32 29 29 29 29 29 30 30 30 31 30 29 28 26 28 29 30 31 32 33 36 38 40 42 43 45 47 48 50 51 51 51 51 49 49 51 51
48 39 35 32 30 29 29 30 30 29 28 30 30 29 30 29 29 29 28 28 30 31 31 32 33 35 37 39 39 41 44 46 49 50 50 49 52 52 50 55 56 53 54
31 31 33 33 31 29 30 30 29 29 28 29 30 29 29 28 29 29 29 30 32 32 32 34 36 37 39 41 42 43 46 48 50 50 50 51 53 56 60 62 63 64 61
30 30 31 34 30 30 30 29 30 28 29 29 29 29 28 28 28 29 31 33 33 34 34 37 39 40 41 42 44 45 48 49 49 50 51 54 57 60 61 63 66 64 65
29 35 33 25 27 28 28 29 29 30 30 30 30 29 28 28 29 31 32 34 35 35 37 39 41 41 42 43 44 47 49 50 50 52 56 58 60 61 64 66 65 68 71
34 32 26 26 29 29 30 31 31 31 31 32 30 28 28 29 31 32 34 35 36 37 38 39 40 41 41 43 45 47 48 49 51 53 56 58 61 64 66 67 69 72 75
33 30 25 27 30 31 32 32 31 32 33 31 30 29 30 31 33 34 36 36 37 37 38 38 39 39 41 42 43 46 48 49 51 54 54 59 62 66 65 68 72 75 79
31 30 31 32 31 31 31 33 31 32 31 30 30 30 30 33 34 35 36 37 37 38 37 37 37 38 40 41 44 46 49 52 54 54 59 63 66 67 69 73 76 80 85
32 33 32 30 31 31 31 30 29 31 29 28 29 29 31 33 33 35 35 36 35 35 35 36 37 38 40 43 45 48 51 53 54 58 61 65 68 71 75 78 81 86 92
26 27 30 33 35 34 29 26 29 28 28 28 28 29 31 31 31 31 32 33 34 34 34 35 36 39 42 44 47 50 51 53 55 59 63 66 70 74 77 81 88 94 97
25 26 31 35 38 36 30 28 28 28 27 26 27 28 28 27 27 29 30 31 32 32 33 34 36 39 41 45 47 48 50 54 59 61 64 69 73 76 79 85 92 94 92
32 32 34 38 40 33 28 28 27 27 25 25 26 24 24 24 25 26 28 29 29 30 32 34 37 39 41 43 46 47 52 56 61 64 68 72 75 79 84 89 92 87 87
36 38 35 38 35 28 29 29 26 25 24 24 22 21 21 21 22 24 25 26 28 29 32 34 37 38 41 43 45 48 53 58 62 67 71 73 78 83 87 91 87 83 72
40 41 38 34 31 28 30 28 26 24 23 22 20 19 18 19 21 22 24 26 27 29 32 34 36 38 41 45 47 49 54 59 63 69 73 77 82 85 89 89 84 80 57
39 39 36 36 33 31 30 26 25 25 23 21 19 18 18 19 21 23 25 26 28 30 32 34 36 40 43 46 48 52 56 60 65 69 73 79 83 86 89 86 83 70 47
40 41 42 39 32 31 30 27 28 26 25 21 20 19 20 21 22 24 25 27 29 31 33 36 38 42 45 48 51 55 59 63 67 71 75 81 83 85 84 81 77 56 44
44 45 43 38 32 31 30 30 29 27 25 21 20 20 21 22 23 25 26 28 30 32 34 38 41 44 47 50 53 56 60 64 68 72 77 81 82 83 79 79 68 51 41
46 49 47 38 35 34 32 33 29 27 24 23 22 22 23 24 25 27 29 30 32 33 36 39 42 45 48 50 53 57 61 65 69 72 77 80 80 79 76 75 62 52 45
47 48 43 37 36 36 34 31 29 27 25 25 25 25 26 26 27 29 32 33 34 36 38 41 44 46 49 52 55 59 63 66 70 74 77 79 75 73 71 70 57 48 45
50 47 43 40 39 36 33 32 30 29 28 28 27 27 28 28 29 30 33 35 37 39 41 43 45 48 51 54 57 60 64 67 70 73 75 74 73 72 71 68 54 46 44
Wind_Direction
247 250 254 255 257 259 260 264 269 279 284 283 276 277 277 278 280 282 283 284 284 286 286 288 289 289 291 291 290 290 290 289 287 286 285 283 282 281 280 279 277 277 276
248 253 254 257 261 262 263 270 276 283 276 271 271 273 274 277 282 282 283 285 285 287 290 290 290 289 289 289 290 291 291 291 290 288 286 284 284 285 284 282 279 276 274
248 253 258 259 260 259 266 274 279 278 271 272 273 275 277 279 279 282 284 285 288 290 292 294 295 296 296 296 296 296 296 295 293 291 290 288 287 287 286 285 284 281 278
252 252 254 257 261 264 267 277 271 266 268 268 270 273 274 276 280 280 281 284 285 287 289 290 292 294 298 300 302 302 302 301 301 300 299 297 296 290 286 290 289 287 286
254 253 254 258 263 265 271 264 259 262 263 267 269 270 272 274 275 278 279 278 278 281 286 293 298 301 303 305 307 307 306 305 302 300 300 299 298 296 293 290 288 291 292
252 255 258 260 261 262 257 257 262 263 265 268 269 269 270 272 274 274 273 276 283 288 294 297 300 302 305 308 309 309 309 307 304 302 298 297 297 297 296 294 292 290 287
243 246 250 253 255 252 253 258 260 261 264 265 265 267 272 275 274 273 278 284 288 292 297 300 302 305 309 312 312 312 311 309 307 304 302 300 299 299 298 298 297 295 293
241 248 249 250 246 251 257 260 260 262 264 265 268 273 276 275 277 282 285 288 292 296 300 303 303 303 306 309 309 310 309 308 306 303 301 299 299 299 299 301 299 296 297
246 244 241 243 248 253 255 256 257 259 262 266 271 273 274 278 282 284 285 290 292 294 296 298 299 300 304 305 308 309 310 310 308 304 300 300 302 301 301 302 302 302 297
235 243 244 244 251 251 251 255 256 257 262 265 267 268 270 275 279 280 281 284 289 291 295 295 296 298 301 303 305 307 309 308 306 304 303 305 305 305 304 303 304 301 301
239 243 246 245 247 251 251 252 255 258 260 261 260 261 266 274 279 283 287 289 291 292 292 294 296 299 301 302 303 305 306 307 307 306 306 307 307 306 307 307 305 303 302
242 242 247 249 253 252 253 254 253 256 258 256 256 262 269 277 284 287 288 289 289 289 293 296 297 298 300 301 304 306 307 308 307 308 310 310 309 308 309 306 305 304 304
235 240 245 246 247 250 249 249 251 253 253 254 259 266 273 280 282 285 286 288 290 292 293 295 297 300 302 303 305 306 307 308 309 311 311 312 313 313 311 309 308 308 308
236 238 240 245 247 246 245 245 247 249 252 256 263 270 277 279 283 285 288 290 292 293 295 299 301 302 302 304 305 306 308 310 312 313 315 316 317 316 314 313 312 311 311
232 230 237 246 243 244 241 240 244 248 253 259 267 274 278 281 284 287 289 292 293 296 299 300 302 303 304 306 307 310 312 314 316 318 319 320 320 319 319 317 316 315 313
225 229 237 240 241 242 242 243 246 251 256 264 270 275 278 282 285 289 292 294 296 298 301 302 305 306 307 309 312 314 316 317 319 321 322 323 323 322 322 322 322 319 316
227 225 233 237 241 244 245 244 247 253 259 265 271 274 278 284 289 293 294 295 298 301 303 306 307 309 312 313 315 317 318 319 322 324 325 326 324 323 323 325 323 321 319
219 226 231 238 242 245 242 243 248 254 258 266 268 275 281 286 291 293 294 297 301 305 307 309 310 312 313 315 317 318 319 322 325 326 327 327 326 325 327 327 325 323 322
225 227 232 236 239 237 238 242 247 252 259 261 267 273 279 287 291 293 297 302 306 310 311 311 312 313 315 318 319 319 321 324 326 328 329 329 329 328 329 329 327 327 325
227 226 231 237 239 235 236 241 243 249 251 257 261 268 278 284 289 295 301 306 311 312 312 314 315 316 318 321 320 321 323 326 328 330 331 332 331 332 332 330 330 330 326
230 230 232 237 234 232 235 237 241 243 247 251 257 265 275 283 292 300 307 312 314 314 314 315 318 320 322 323 323 324 326 328 330 331 332 333 334 334 334 333 333 333 329
229 230 230 233 232 230 232 234 237 240 244 249 256 265 273 283 292 303 309 312 314 314 316 317 319 321 323 326 326 327 328 330 331 332 333 335 336 336 335 336 336 333 330
223 226 229 233 231 229 230 233 235 239 243 250 259 268 277 286 295 303 307 310 314 316 316 318 321 323 325 328 328 328 330 331 333 334 336 338 338 338 338 338 337 336 332
222 225 226 224 223 226 227 231 234 238 245 253 263 273 281 289 298 301 305 308 313 316 317 318 320 323 326 328 328 329 330 332 334 336 338 339 340 339 339 339 336 336 336
222 225 227 224 222 223 226 229 234 240 248 257 266 274 281 288 296 301 303 306 310 313 315 316 319 323 326 328 327 327 329 332 334 337 339 340 340 340 339 340 337 334 336
218 221 221 220 220 223 226 230 236 243 253 261 268 275 281 286 293 299 302 304 307 310 313 315 317 321 324 326 328 328 330 334 336 338 340 340 340 340 341 342 340 336 338
Height
5838 5841 5843 5845 5847 5847 5848 5849 5850 5849 5849 5848 5848 5848 5848 5848 5847 5846 5845 5844 5843 5841 5840 5839 5839 5837 5836 5834 5832 5829 5827 5825 5824 5822 5822 5819 5817 5814 5812 5809 5808 5806 5804
5829 5832 5835 5837 5839 5841 5842 5843 5843 5841 5841 5841 5841 5841 5841 5840 5839 5838 5838 5837 5836 5834 5832 5832 5831 5829 5828 5826 5824 5821 5817 5814 5813 5810 5807 5808 5806 5803 5798 5797 5794 5791 5790
5821 5824 5826 5829 5831 5833 5835 5835 5834 5834 5834 5834 5833 5833 5833 5833 5832 5832 5830 5829 5829 5827 5826 5824 5823 5820 5818 5816 5813 5810 5807 5804 5801 5798 5795 5793 5792 5792 5790 5785 5779 5776 5773
5813 5816 5818 5820 5822 5824 5826 5827 5827 5827 5828 5827 5827 5826 5826 5825 5825 5825 5824 5823 5822 5821 5819 5817 5815 5812 5810 5807 5804 5801 5798 5794 5790 5785 5781 5778 5776 5776 5780 5775 5769 5763 5759
5805 5806 5808 5811 5812 5814 5816 5818 5819 5819 5820 5820 5821 5820 5820 5820 5820 5819 5818 5817 5816 5815 5813 5810 5808 5805 5802 5798 5795 5792 5788 5785 5781 5776 5771 5768 5763 5759 5758 5760 5759 5754 5747
5794 5795 5798 5801 5803 5805 5808 5809 5810 5811 5812 5813 5813 5814 5814 5814 5814 5813 5811 5810 5808 5807 5805 5803 5800 5797 5794 5791 5787 5783 5779 5775 5770 5767 5763 5758 5753 5748 5744 5742 5740 5740 5739
5781 5784 5789 5792 5795 5797 5799 5801 5802 5803 5804 5806 5807 5807 5807 5807 5806 5805 5803 5802 5801 5800 5798 5795 5791 5788 5785 5782 5778 5774 5769 5765 5760 5756 5751 5746 5740 5736 5731 5728 5725 5721 5720
5772 5779 5782 5785 5787 5789 5791 5793 5794 5795 5796 5798 5799 5799 5799 5798 5798 5796 5795 5794 5794 5792 5790 5787 5784 5781 5778 5774 5770 5766 5761 5756 5751 5746 5741 5736 5730 5724 5719 5714 5710 5709 5704
5769 5772 5774 5778 5780 5783 5785 5787 5788 5789 5790 5791 5791 5791 5791 5790 5790 5789 5788 5788 5787 5785 5783 5780 5777 5773 5770 5766 5761 5757 5752 5747 5741 5736 5731 5725 5719 5713 5707 5699 5692 5686 5685
5760 5764 5767 5770 5773 5775 5777 5779 5781 5782 5783 5783 5784 5785 5785 5784 5784 5783 5782 5781 5780 5778 5775 5772 5769 5765 5761 5757 5753 5748 5742 5737 5732 5726 5720 5714 5707 5700 5693 5685 5677 5669 5662
5753 5755 5756 5762 5765 5767 5769 5771 5773 5775 5776 5777 5778 5778 5778 5778 5777 5776 5775 5773 5771 5770 5767 5764 5760 5755 5751 5748 5743 5739 5733 5728 5722 5716 5710 5702 5695 5687 5679 5670 5661 5652 5642
5744 5745 5750 5754 5757 5759 5761 5763 5765 5768 5769 5770 5771 5771 5771 5771 5770 5769 5767 5766 5764 5761 5757 5754 5750 5747 5743 5739 5734 5729 5724 5718 5712 5705 5698 5691 5683 5674 5664 5655 5644 5634 5623
5735 5739 5743 5746 5749 5752 5754 5757 5759 5760 5762 5763 5764 5764 5764 5763 5762 5761 5759 5757 5755 5752 5749 5746 5742 5737 5733 5729 5724 5719 5713 5707 5701 5694 5686 5678 5669 5659 5649 5639 5627 5615 5603
5729 5733 5735 5738 5741 5744 5747 5750 5751 5753 5754 5755 5756 5756 5755 5755 5753 5752 5750 5748 5746 5743 5740 5736 5732 5727 5723 5719 5714 5709 5702 5696 5689 5681 5673 5663 5653 5643 5633 5621 5608 5595 5581
5722 5726 5728 5731 5733 5736 5739 5742 5744 5745 5746 5747 5747 5747 5746 5746 5744 5743 5742 5739 5737 5735 5731 5727 5722 5718 5714 5710 5704 5698 5692 5685 5676 5668 5659 5649 5637 5625 5612 5601 5588 5573 5557
5714 5718 5721 5723 5725 5727 5731 5734 5736 5737 5738 5739 5739 5739 5738 5738 5736 5735 5733 5732 5729 5726 5721 5717 5713 5709 5704 5699 5693 5687 5679 5673 5666 5656 5645 5634 5624 5612 5597 5582 5564 5546 5528
5708 5711 5714 5715 5714 5718 5724 5726 5727 5729 5730 5731 5731 5730 5730 5729 5728 5727 5725 5724 5720 5716 5712 5708 5704 5700 5694 5689 5683 5676 5669 5661 5652 5643 5633 5621 5609 5598 5584 5567 5548 5527 5505
5698 5701 5703 5705 5707 5712 5716 5718 5720 5721 5722 5722 5722 5722 5722 5721 5720 5719 5718 5715 5711 5706 5702 5699 5695 5691 5687 5680 5673 5666 5658 5649 5639 5629 5620 5608 5595 5581 5567 5551 5532 5510 5489
5687 5691 5694 5695 5698 5704 5708 5709 5711 5712 5713 5714 5715 5715 5715 5713 5713 5713 5710 5706 5702 5698 5694 5690 5687 5683 5678 5672 5665 5656 5647 5637 5628 5617 5605 5593 5580 5565 5551 5534 5515 5496 5477
5675 5680 5685 5688 5692 5697 5699 5701 5703 5704 5706 5707 5708 5708 5707 5707 5706 5705 5701 5697 5693 5690 5686 5682 5678 5674 5668 5662 5655 5647 5637 5629 5617 5603 5591 5578 5565 5549 5533 5514 5497 5482 5466
5667 5672 5675 5678 5684 5687 5690 5693 5695 5697 5699 5700 5700 5700 5700 5700 5699 5696 5692 5689 5686 5683 5680 5675 5670 5665 5659 5651 5644 5636 5626 5617 5606 5595 5582 5568 5552 5535 5517 5497 5479 5464 5454
5657 5661 5663 5669 5676 5679 5681 5684 5687 5690 5691 5692 5693 5693 5693 5692 5690 5687 5684 5682 5679 5675 5671 5666 5661 5655 5648 5640 5632 5623 5615 5605 5595 5584 5570 5556 5540 5523 5506 5488 5471 5457 5446
5645 5649 5654 5660 5665 5669 5672 5677 5680 5682 5683 5685 5685 5685 5685 5684 5681 5679 5677 5674 5671 5667 5662 5657 5651 5645 5638 5630 5621 5613 5604 5595 5584 5573 5558 5543 5527 5511 5494 5477 5462 5451 5442
5634 5638 5643 5650 5655 5660 5664 5669 5671 5673 5675 5676 5676 5676 5676 5675 5673 5671 5669 5666 5662 5658 5653 5648 5643 5637 5629 5621 5613 5604 5595 5585 5574 5562 5548 5534 5519 5502 5486 5472 5455 5443 5435
5622 5627 5634 5642 5647 5651 5656 5659 5662 5665 5666 5667 5667 5667 5667 5666 5664 5662 5660 5657 5653 5649 5645 5639 5633 5627 5620 5612 5604 5596 5586 5575 5563 5551 5538 5526 5513 5500 5485 5468 5454 5441 5432
5610 5618 5626 5632 5637 5643 5647 5650 5653 5656 5657 5657 5657 5658 5658 5657 5656 5653 5651 5648 5644 5640 5635 5630 5624 5616 5609 5602 5593 5584 5574 5562 5552 5540 5529 5517 5504 5490 5477 5462 5448 5437 5429